Weather in Berezovka

Russia / Primorsky Krai     43°53′55″N   134°13′11″E
temp.,
°C
wind,
m/s
gust,
m/s
humid.,
%
clouds,
%
prec.,
mm/h
press.,
hPa
HPBL,
m
14 may, fri
fri1401:00+6ssw22845 0.0 101328
04:00+5ssw22850 0.0 101414
07:00+8ssw12700 0.0 101452
10:00+16wnw36325 0.0 10142023
13:00+19wnw3424100 0.0 10132124
16:00+20w2323100 0.0 10112412
19:00+17sw2349100 0.0 101173
22:00+11sse2266100 0.0 101332
15 may, sat
sat1501:00+10sse2369100 0.0 101264
04:00+11se1260100 0.0 101083
07:00+10s21082100 0.0 1010387
10:00+18sw5125678 0.0 10081012
13:00+23sw6104597 0.0 10051615
16:00+21wsw7104880 0.0 10041666
19:00+14wnw4891100 0.3 1006813
22:00+9wnw3896100 2.0 1011823
16 may, sun
sun1601:00+7wsw1496100 1.1 1011334
04:00+7sw1293100 1.2 101093
07:00+7sw1289100 0.0 1011101
10:00+12w1356100 0.0 1010709
13:00+16nw3436100 0.0 10081439
16:00+16nw3440100 0.0 10071601
19:00+13nw3551100 0.0 1007608
22:00+7ssw117096 0.0 100911
17 may, mon
mon1701:00+6s1168100 0.0 100910
04:00+6sse1164100 0.0 100810
07:00+9ese0060100 0.0 100816
10:00+16nne1237100 0.0 1005985
13:00+19n2228100 0.0 10041553
16:00+19nnw2328100 0.0 10021886
19:00+16nnw2549100 0.0 1003200
22:00+11ssw1157100 0.0 100411
18 may, tue
tue1801:00+10ssw1159100 0.0 100512
04:00+10ssw2163100 0.0 100515
07:00+12ssw116099 0.0 100625
10:00+19wnw2236100 0.0 1006962
13:00+22w2230100 0.0 10052414
16:00+22wnw3329100 0.0 10032703
19:00+17s2257100 0.1 100542
22:00+11ssw2384100 0.4 100746